TimeMST,TemperatureF,Dew PointF,Humidity,Sea Level PressureIn,VisibilityMPH,Wind Direction,Wind SpeedMPH,Gust SpeedMPH,PrecipitationIn,Events,Conditions,WindDirDegrees,DateUTC
12:17 AM,33.1,32.0,96,29.84,3.0,NE,3.5,-,N/A,,Overcast,40,2014-03-04 07:17:00
12:53 AM,35.1,34.0,96,29.93,6.0,Calm,Calm,-,0.01,Rain,Light Rain,0,2014-03-04 07:53:00
1:53 AM,33.1,32.0,96,29.94,3.0,Calm,Calm,-,0.01,,Overcast,0,2014-03-04 08:53:00
2:53 AM,34.0,33.1,96,29.94,3.0,Calm,Calm,-,0.00,,Overcast,0,2014-03-04 09:53:00
3:53 AM,34.0,33.1,96,29.94,5.0,Calm,Calm,-,0.00,,Overcast,0,2014-03-04 10:53:00
4:51 AM,32.0,30.2,93,29.89,2.0,West,5.8,-,N/A,,Mostly Cloudy,270,2014-03-04 11:51:00
4:53 AM,32.0,30.9,96,29.96,1.0,West,4.6,-,N/A,,Mostly Cloudy,270,2014-03-04 11:53:00
4:57 AM,32.0,30.9,96,29.89,0.2,WNW,4.6,-,N/A,Fog,Fog,300,2014-03-04 11:57:00
5:19 AM,30.9,30.9,100,29.89,0.5,Calm,Calm,-,N/A,Fog,Light Freezing Fog,0,2014-03-04 12:19:00
5:40 AM,30.9,30.0,96,29.90,0.5,West,3.5,-,N/A,Fog,Light Freezing Fog,270,2014-03-04 12:40:00
5:49 AM,30.2,28.4,93,29.90,0.2,Calm,Calm,-,N/A,Fog,Light Freezing Fog,0,2014-03-04 12:49:00
5:53 AM,30.0,28.9,96,29.98,0.2,Calm,Calm,-,N/A,Fog,Light Freezing Fog,0,2014-03-04 12:53:00
6:29 AM,28.0,27.0,96,29.91,0.2,Calm,Calm,-,N/A,Fog,Light Freezing Fog,0,2014-03-04 13:29:00
6:53 AM,28.9,28.0,96,30.00,0.2,Calm,Calm,-,N/A,Fog,Light Freezing Fog,0,2014-03-04 13:53:00
7:01 AM,28.9,28.0,96,29.92,0.8,Calm,Calm,-,N/A,,Mostly Cloudy,0,2014-03-04 14:01:00
7:05 AM,28.9,28.9,100,29.92,1.2,NE,3.5,-,N/A,,Mostly Cloudy,50,2014-03-04 14:05:00
7:07 AM,30.0,28.9,96,29.92,2.0,ENE,3.5,-,N/A,,Mostly Cloudy,70,2014-03-04 14:07:00
7:29 AM,30.0,28.9,96,29.92,1.8,Calm,Calm,-,N/A,,Mostly Cloudy,0,2014-03-04 14:29:00
7:41 AM,28.9,28.0,96,29.92,1.0,Calm,Calm,-,N/A,,Mostly Cloudy,0,2014-03-04 14:41:00
7:53 AM,27.0,27.0,100,30.01,0.2,Variable,3.5,-,N/A,Fog,Light Freezing Fog,0,2014-03-04 14:53:00
8:03 AM,27.0,26.1,96,29.93,0.2,Calm,Calm,-,N/A,Fog,Light Freezing Fog,0,2014-03-04 15:03:00
8:21 AM,28.9,28.0,96,29.93,0.5,NE,3.5,-,N/A,Fog,Light Freezing Fog,50,2014-03-04 15:21:00
8:29 AM,28.0,28.0,100,29.94,1.2,ENE,4.6,-,N/A,,Mostly Cloudy,60,2014-03-04 15:29:00
8:34 AM,30.0,28.9,96,29.94,2.0,East,4.6,-,N/A,,Mostly Cloudy,90,2014-03-04 15:34:00
8:45 AM,28.0,27.0,96,29.94,1.2,North,-9999.0,-,N/A,,Mostly Cloudy,0,2014-03-04 15:45:00
8:48 AM,26.6,26.6,100,29.94,0.8,West,3.5,-,N/A,,Mostly Cloudy,260,2014-03-04 15:48:00
8:53 AM,27.0,27.0,100,30.03,0.5,WSW,5.8,-,N/A,Fog,Light Freezing Fog,250,2014-03-04 15:53:00
9:02 AM,28.0,28.0,100,29.94,1.2,WNW,3.5,-,N/A,,Overcast,290,2014-03-04 16:02:00
9:06 AM,28.0,28.0,100,29.95,2.0,WNW,3.5,-,N/A,,Overcast,290,2014-03-04 16:06:00
9:18 AM,30.0,28.9,96,29.95,10.0,Calm,Calm,-,N/A,,Overcast,0,2014-03-04 16:18:00
9:53 AM,33.1,32.0,96,30.03,10.0,East,3.5,-,N/A,,Overcast,100,2014-03-04 16:53:00
10:53 AM,33.1,32.0,96,30.04,10.0,SSE,3.5,-,N/A,,Overcast,150,2014-03-04 17:53:00
11:53 AM,36.0,33.1,89,30.03,10.0,ESE,5.8,-,N/A,,Overcast,110,2014-03-04 18:53:00
12:53 PM,39.9,33.1,77,30.01,10.0,ESE,8.1,-,N/A,,Mostly Cloudy,120,2014-03-04 19:53:00
1:53 PM,46.0,33.1,61,30.00,10.0,NE,5.8,-,N/A,,Mostly Cloudy,50,2014-03-04 20:53:00
2:53 PM,41.0,33.1,73,30.01,10.0,South,4.6,-,N/A,,Mostly Cloudy,190,2014-03-04 21:53:00
3:53 PM,44.1,33.1,65,30.01,10.0,South,4.6,-,N/A,,Overcast,170,2014-03-04 22:53:00
4:28 PM,42.1,32.0,67,29.95,10.0,South,10.4,-,0.00,Rain,Light Rain,190,2014-03-04 23:28:00
4:53 PM,42.1,32.0,67,30.01,10.0,SSW,4.6,-,0.00,,Overcast,200,2014-03-04 23:53:00
5:53 PM,43.0,30.9,62,30.01,10.0,SW,4.6,-,N/A,,Overcast,230,2014-03-05 00:53:00
6:53 PM,39.9,32.0,73,30.04,10.0,Calm,Calm,-,0.00,,Overcast,0,2014-03-05 01:53:00
7:22 PM,39.9,32.0,73,29.97,10.0,Calm,Calm,-,N/A,,Overcast,0,2014-03-05 02:22:00
7:53 PM,37.9,32.0,79,30.06,10.0,SSW,6.9,-,N/A,,Mostly Cloudy,200,2014-03-05 02:53:00
8:53 PM,37.9,32.0,79,30.06,10.0,Calm,Calm,-,N/A,,Partly Cloudy,0,2014-03-05 03:53:00
9:53 PM,37.9,32.0,79,30.06,10.0,ESE,3.5,-,N/A,,Mostly Cloudy,120,2014-03-05 04:53:00
10:53 PM,37.0,34.0,89,30.06,9.0,South,16.1,-,0.01,Rain,Light Rain,170,2014-03-05 05:53:00
11:53 PM,36.0,33.1,89,30.05,10.0,SE,10.4,-,0.00,,Overcast,140,2014-03-05 06:53:00